Theta_e
323 322 321 323 327 328 326 323 328 331 330 326 327 325 326 329 330 330 329 329 328 328 328 329 331 330 332 330 334 332 332 334 333 333 335 346 350 349 352 350 351 352 351 354 352 345 344 344 342 338 335 331 332 333 334 336 337 340 340 342 345 345 347 346 346 343 340 341 342 340 336 333 333 338 338 337 338 338 338 337 336 336 335 337 339 340 340 341 341 342 341 341 340 340 339 336 334
322 322 323 327 329 325 324 324 326 327 328 326 327 326 327 328 329 330 329 329 329 328 328 330 330 329 330 330 331 332 331 332 334 336 343 351 352 351 352 350 350 351 350 353 351 347 346 345 342 340 335 332 332 334 333 334 335 337 339 343 345 345 346 346 345 343 343 342 341 338 334 334 337 339 338 338 339 338 338 337 336 336 335 337 337 339 340 340 340 341 341 341 339 339 338 336 334
321 321 322 323 326 322 322 326 322 320 325 323 324 329 329 327 327 328 327 327 327 326 328 329 329 330 333 334 331 332 331 331 336 340 347 352 353 352 352 350 349 349 350 353 352 349 350 345 343 340 336 332 332 333 333 333 334 335 338 342 344 344 345 346 344 344 343 342 340 336 335 337 340 339 339 339 339 338 337 335 334 334 335 336 336 337 339 340 339 340 341 341 340 340 339 336 334
318 320 320 320 322 323 324 327 323 320 321 317 320 330 328 327 326 326 326 327 326 326 328 329 333 332 333 335 332 331 331 330 336 341 349 350 352 353 351 349 348 349 349 352 352 350 350 345 343 341 336 333 332 333 333 333 334 336 337 339 342 344 344 345 343 342 341 339 337 335 337 340 341 339 338 339 339 337 335 332 330 330 332 334 336 337 338 340 339 340 341 341 340 340 339 337 334
317 320 320 321 320 323 327 327 325 320 319 317 317 325 325 325 325 326 326 326 325 328 326 331 337 335 329 334 331 331 334 332 334 337 345 351 352 351 352 350 348 349 350 352 352 351 350 345 342 341 336 333 332 333 333 334 334 335 337 338 339 341 342 341 338 338 337 337 335 335 339 341 341 339 337 338 337 335 334 334 334 333 332 333 335 336 338 339 339 339 340 340 339 339 339 337 335
319 321 320 321 322 322 323 322 322 319 321 322 319 322 324 324 324 326 325 326 325 327 326 330 336 334 331 331 331 332 335 335 335 335 344 354 352 350 352 351 349 349 349 350 350 351 351 345 341 342 336 333 333 333 334 334 334 335 336 338 337 338 337 336 334 334 334 333 334 338 341 341 341 339 337 334 335 337 336 337 337 337 336 336 335 335 336 337 338 338 340 340 339 339 338 336 335
319 320 321 321 321 323 321 316 318 319 321 323 321 321 324 323 323 324 326 327 324 326 326 329 330 332 335 332 333 332 333 336 335 338 348 354 352 353 352 351 351 349 349 348 347 350 351 345 341 341 337 332 333 334 334 334 334 335 336 337 336 336 335 334 332 331 331 333 337 339 341 341 339 340 336 331 335 339 338 338 338 338 338 337 336 334 334 336 337 338 339 338 338 338 337 335 334
320 320 321 323 322 323 320 316 317 319 320 322 322 322 323 322 323 323 325 326 324 326 325 328 326 333 338 330 334 334 335 338 338 346 352 353 352 353 351 351 351 350 349 346 347 350 349 346 342 341 337 331 333 333 334 335 335 336 337 337 337 337 337 334 330 329 333 336 340 341 341 341 339 340 336 332 337 339 338 338 338 338 338 336 336 334 334 335 337 338 338 336 335 335 334 332 331
321 320 320 321 322 321 317 316 318 321 322 322 322 322 322 322 323 323 323 324 324 324 324 326 324 332 335 329 335 339 343 346 345 352 354 352 353 352 350 350 350 349 347 344 349 351 348 347 343 341 337 331 332 333 334 335 336 338 338 339 338 338 338 333 327 331 336 339 340 340 340 339 338 340 334 332 338 339 338 338 337 338 338 337 336 335 335 336 337 337 335 333 332 332 330 329 329
320 321 322 322 320 315 312 315 318 320 322 322 322 321 322 322 323 322 322 322 323 323 324 325 324 329 331 330 338 343 348 350 349 352 353 353 353 352 350 349 350 349 347 347 351 351 348 348 344 341 338 333 333 334 335 336 338 340 340 341 340 339 338 332 328 333 339 338 338 339 339 339 339 339 333 332 337 339 338 338 337 337 336 335 335 336 336 336 336 333 330 330 330 329 328 328 328
320 320 322 320 317 311 310 314 317 321 322 322 321 321 322 321 322 323 322 322 323 323 324 324 324 327 327 337 347 349 349 349 352 354 354 355 354 353 351 349 350 349 349 350 351 352 351 347 343 342 339 335 336 336 336 337 339 340 341 341 340 339 338 334 330 335 339 338 335 336 339 339 339 339 333 333 338 339 338 338 338 335 333 333 332 334 336 335 334 330 329 329 329 328 328 328 328
320 321 323 318 314 313 313 314 317 320 323 321 321 320 321 321 322 321 321 321 322 323 324 325 325 326 326 340 355 352 351 351 354 355 355 355 353 353 352 350 350 349 349 349 350 352 352 348 344 342 339 337 338 338 338 339 341 340 340 340 340 340 338 336 333 335 339 337 333 336 339 339 340 339 334 335 338 338 338 338 337 333 333 334 330 331 334 334 332 329 329 329 328 328 328 328 328
320 321 322 319 318 318 317 315 318 321 322 321 320 321 322 321 322 321 321 321 322 322 323 324 322 325 328 341 356 352 353 355 355 357 355 355 354 353 352 352 351 349 349 348 350 351 352 349 345 343 342 340 339 339 341 341 341 340 341 340 340 341 340 338 335 335 339 335 331 335 339 339 340 339 335 336 339 338 338 339 337 332 332 333 328 328 332 334 331 329 330 329 328 327 328 328 328
321 322 321 319 321 321 318 316 318 318 317 321 320 322 321 321 322 321 322 321 321 321 322 324 321 323 330 341 353 353 356 356 357 357 354 354 355 354 353 352 351 349 348 347 348 350 351 349 347 346 345 343 339 339 340 340 341 341 341 342 341 341 340 340 336 335 338 334 329 336 339 340 341 340 336 336 338 339 339 338 337 334 332 330 325 324 330 333 331 330 330 328 328 327 327 328 328
321 321 322 320 320 319 318 317 318 316 316 322 322 321 322 321 322 321 321 321 321 322 322 323 324 323 327 336 341 347 358 359 357 355 354 354 354 354 353 352 350 349 347 347 348 349 351 349 348 347 347 344 340 338 338 340 342 342 343 343 343 342 341 340 339 338 339 334 329 334 339 341 341 340 337 334 336 339 338 338 337 337 335 331 325 323 327 331 331 329 328 327 327 327 327 328 327
322 321 321 320 318 316 317 319 319 317 318 322 322 322 321 321 322 321 321 322 321 322 323 322 323 323 325 332 331 342 359 360 355 353 355 354 354 353 352 351 350 349 347 347 348 349 351 349 349 347 346 344 340 339 338 341 342 342 344 342 342 343 342 340 340 339 340 336 330 333 339 341 341 341 339 335 334 336 337 337 336 337 338 333 327 323 324 328 330 330 328 326 325 327 327 327 327
321 322 321 318 317 316 317 320 319 317 320 322 321 322 321 321 322 322 322 323 322 322 322 322 323 324 325 328 335 351 360 357 354 354 355 354 354 352 351 350 350 349 348 347 347 348 350 349 349 346 345 342 341 342 340 342 343 343 344 341 341 342 341 340 340 339 339 338 333 334 339 341 342 341 340 336 335 336 336 336 336 337 337 334 329 325 324 324 327 329 328 325 324 326 327 327 326
320 322 320 317 319 320 320 321 320 320 321 322 321 321 321 321 321 322 322 322 322 322 321 323 323 323 324 326 346 360 358 355 355 356 355 353 353 351 350 350 349 348 348 348 347 347 349 349 348 346 345 342 342 343 343 344 344 345 345 342 341 342 341 339 340 339 339 338 335 337 338 339 341 341 340 337 336 338 337 337 336 336 336 335 331 327 325 324 324 325 325 325 324 324 326 327 326
321 321 320 319 322 322 321 322 322 322 321 321 321 321 321 320 321 321 322 322 322 321 322 323 322 326 332 338 355 360 356 356 357 356 354 353 352 351 351 350 348 348 348 348 348 346 348 349 348 345 344 343 342 343 343 344 345 345 345 343 343 342 340 339 339 339 338 338 338 339 338 338 342 341 340 339 338 339 339 338 337 336 335 335 333 330 327 325 325 323 323 323 323 324 325 326 328
320 322 320 320 323 321 322 322 321 322 321 321 321 321 321 320 322 321 321 322 320 321 323 322 326 340 349 352 358 358 356 357 357 355 355 351 350 351 351 351 349 349 349 348 348 346 347 347 349 346 343 342 342 344 343 344 345 344 344 343 343 342 339 339 338 337 337 338 340 340 339 339 341 342 340 339 340 340 339 339 339 337 336 335 334 334 330 328 326 325 324 323 323 324 324 326 330
321 321 320 321 322 321 323 322 321 322 321 322 321 321 321 321 323 321 321 321 321 322 322 322 328 338 351 357 357 356 356 356 356 355 354 351 350 351 351 350 350 350 349 347 347 347 346 346 347 346 344 342 341 344 344 344 345 344 343 342 341 341 340 339 338 338 337 337 339 340 340 340 341 342 341 340 340 339 339 339 339 338 337 336 335 336 335 333 330 328 327 324 323 324 324 327 332
322 322 321 321 321 322 322 322 323 321 321 321 321 321 321 321 322 321 322 321 321 323 321 324 322 328 348 355 354 354 355 355 356 354 353 352 351 352 352 351 350 350 349 348 347 347 347 345 346 346 344 344 343 344 345 344 345 344 343 343 340 340 341 339 339 338 338 338 338 340 340 341 341 341 341 340 339 338 339 339 339 338 338 337 336 335 336 336 334 333 332 328 323 324 326 329 332
322 322 322 321 322 322 322 323 321 321 321 321 321 322 321 322 321 321 322 320 323 323 323 324 321 326 341 348 352 352 353 355 355 354 353 352 352 353 353 351 350 351 350 348 348 348 347 347 346 345 344 344 343 343 344 344 345 345 343 343 341 339 340 340 339 338 338 339 339 340 340 340 341 340 340 341 340 338 338 338 338 338 338 338 335 333 335 336 336 335 336 334 327 327 329 330 332
322 321 322 322 322 322 323 323 321 322 321 321 322 321 322 321 321 321 322 322 323 323 324 323 322 325 327 339 353 351 350 354 353 354 353 351 353 353 353 352 351 351 350 349 348 348 348 347 347 346 345 343 343 342 342 342 344 345 344 343 342 339 339 339 338 338 338 340 340 340 340 339 340 340 340 340 339 338 338 337 337 338 338 338 336 332 333 336 335 335 336 335 330 327 329 331 331
322 322 322 322 322 323 323 323 321 321 321 322 321 321 321 321 322 322 321 322 323 323 323 323 323 323 322 337 353 351 347 351 353 355 355 352 353 354 354 353 352 351 350 349 348 349 348 348 348 347 345 343 342 341 340 341 344 345 344 344 343 341 340 339 339 340 339 341 341 340 339 339 340 340 340 340 339 339 338 338 337 338 338 338 337 333 332 334 334 335 334 334 332 327 330 331 331
321 321 321 322 321 322 322 321 321 321 321 321 322 321 322 322 323 322 323 324 323 325 323 323 323 323 324 333 349 349 344 350 357 358 355 352 353 356 356 354 353 353 351 349 348 349 349 348 349 347 346 343 341 341 340 340 343 345 345 343 342 342 342 341 341 341 340 341 341 339 338 339 340 340 339 339 339 338 339 339 338 338 339 338 338 333 332 333 334 333 332 332 332 330 331 331 330
322 321 321 322 322 322 322 322 322 322 321 322 321 321 322 322 322 321 323 325 324 324 323 324 324 325 328 329 337 342 342 350 354 357 358 354 354 357 357 355 354 353 351 350 349 349 349 348 349 348 346 345 343 342 340 340 342 344 345 343 343 343 342 341 341 340 340 340 339 339 339 339 340 340 338 338 339 339 339 339 338 338 338 339 337 334 333 332 332 333 332 333 333 332 332 331 330
321 321 321 321 321 322 322 322 322 322 322 322 322 321 322 322 322 323 323 325 324 324 324 323 323 325 327 328 331 337 345 345 340 349 361 357 354 356 357 357 355 354 351 350 351 349 349 349 348 348 347 346 345 343 342 341 342 343 343 342 341 340 340 340 340 340 340 340 339 339 340 339 340 340 338 338 338 339 339 338 337 338 338 338 336 335 334 332 330 331 332 332 332 332 330 330 330
320 321 320 320 321 321 322 322 322 323 322 323 323 319 321 323 322 323 323 325 324 324 325 324 325 325 324 326 329 332 341 342 339 348 360 356 353 356 358 357 356 354 352 351 352 350 349 349 349 348 347 346 346 344 343 341 340 342 341 340 339 338 338 339 339 340 341 341 339 339 341 340 340 340 339 337 338 339 339 338 338 338 339 338 336 335 334 332 331 330 331 332 331 330 330 328 329
320 321 320 320 320 321 323 323 322 323 323 323 322 315 318 324 323 324 325 325 326 324 326 324 325 324 324 326 325 328 338 343 350 350 351 355 353 354 357 358 356 354 353 352 352 351 349 349 349 348 348 347 346 344 343 341 341 341 340 340 339 338 338 339 339 339 340 341 340 340 341 340 340 340 340 338 338 338 338 338 338 338 339 338 336 334 333 333 331 330 330 330 330 329 330 329 329
321 320 320 320 315 317 324 324 322 324 322 324 323 314 316 324 323 325 325 325 325 324 326 324 325 325 324 326 324 328 335 341 350 346 344 352 352 350 352 357 357 355 354 353 352 351 350 349 349 348 348 347 347 346 344 342 341 341 340 340 340 339 338 339 339 339 339 341 340 340 341 340 340 340 339 339 339 338 338 338 338 338 338 338 335 332 332 333 331 330 330 329 329 329 331 331 330
323 318 315 320 315 317 326 324 324 324 323 324 323 315 317 324 324 325 324 325 325 324 325 326 325 325 324 326 326 329 331 334 341 343 344 347 347 345 345 350 355 356 354 353 353 351 350 349 348 348 348 347 347 346 345 343 342 340 339 339 339 339 338 338 339 338 339 340 339 339 340 339 339 339 339 339 339 338 337 337 337 338 338 338 335 332 333 334 331 331 331 329 330 330 331 330 329
323 319 313 316 316 316 323 324 326 324 324 324 323 319 321 323 324 325 325 325 324 325 326 325 326 326 327 328 328 329 330 331 334 341 345 344 345 342 341 344 351 356 355 353 353 352 351 349 347 348 347 347 347 346 344 343 342 339 337 338 338 338 338 337 338 337 338 338 339 340 340 339 338 339 338 338 338 337 337 337 337 337 338 338 336 333 333 333 331 331 330 330 330 330 329 326 328
318 321 315 317 317 316 317 321 325 324 324 325 323 323 323 324 325 325 326 325 325 325 325 327 326 326 328 329 328 330 332 333 334 338 342 343 343 341 339 341 350 356 354 353 353 352 351 349 347 348 348 348 347 346 343 342 343 340 337 336 337 338 338 338 337 338 338 338 339 339 341 340 339 339 338 337 338 337 337 336 337 338 337 338 335 334 333 332 332 332 333 331 329 329 328 325 328
315 316 315 316 318 317 317 319 324 325 325 324 324 324 324 325 325 324 325 326 325 326 326 326 326 327 329 329 328 331 331 331 334 335 337 340 341 341 341 344 351 356 354 353 353 353 351 350 347 347 348 347 346 347 345 342 341 341 338 338 339 340 339 339 339 339 339 339 338 338 340 340 339 340 338 338 337 337 337 336 337 338 337 337 336 335 333 332 333 334 336 335 330 331 332 332 334
319 318 317 315 315 317 320 323 325 324 325 325 324 323 324 325 324 325 324 325 325 326 326 327 326 326 328 329 330 332 331 331 332 334 337 340 340 341 345 348 351 353 353 353 353 352 351 349 348 347 348 347 345 346 346 345 342 340 339 339 340 340 339 339 339 340 339 339 338 337 339 340 340 340 338 338 338 337 337 336 337 337 338 337 337 336 334 332 333 333 336 336 333 334 335 337 338
323 322 319 318 316 317 323 325 326 326 324 323 325 324 324 325 324 325 324 325 326 325 327 327 326 327 328 331 332 333 335 334 334 337 337 338 337 339 346 349 346 345 349 353 353 352 350 348 348 348 347 346 346 346 346 347 345 343 342 340 340 341 341 341 340 340 340 339 339 338 338 339 340 339 338 339 338 337 337 336 336 337 338 338 338 337 335 335 334 334 336 336 335 336 338 339 338
324 321 319 318 317 319 324 327 325 326 323 322 325 323 323 325 324 326 325 325 326 325 326 327 326 327 330 332 332 331 333 333 335 338 336 336 337 338 344 348 345 341 344 350 352 351 350 348 348 348 347 346 346 346 346 345 345 345 345 344 343 342 342 342 342 341 341 341 340 338 337 338 339 339 339 339 338 337 336 336 336 337 338 338 338 338 337 337 336 336 337 336 337 337 339 339 337
324 322 319 315 318 321 323 326 326 325 322 321 324 322 322 325 325 326 326 326 327 327 326 326 327 327 329 331 331 331 334 334 336 337 336 335 337 337 340 344 344 342 344 349 352 351 350 349 348 348 347 346 345 346 346 344 344 345 345 345 345 344 344 343 343 343 342 342 340 338 338 338 339 340 339 339 338 337 336 335 335 338 338 337 338 338 338 339 338 338 337 336 338 339 339 339 337
323 322 316 314 319 319 316 321 326 325 323 322 323 322 322 326 326 326 327 327 326 327 326 326 327 327 331 330 331 333 335 338 338 337 338 340 340 341 343 344 344 343 345 345 347 350 350 348 348 348 347 346 346 345 346 344 344 345 344 345 345 345 344 343 344 343 342 342 339 339 339 339 340 340 340 339 338 339 338 337 336 336 337 337 338 338 338 338 338 338 336 336 338 338 338 337 336
322 323 318 316 320 320 318 321 325 323 323 324 323 317 317 323 327 326 326 327 327 327 326 327 327 328 332 331 331 333 336 340 339 337 342 346 344 346 348 346 342 341 343 340 341 347 350 348 348 348 347 346 345 345 345 345 344 344 344 345 346 345 345 344 344 342 342 342 340 339 339 339 340 340 340 340 339 340 339 338 337 338 338 338 337 337 337 337 338 337 336 337 337 338 337 336 335
318 324 323 322 323 321 322 323 321 317 316 321 321 312 313 321 325 325 327 327 327 327 326 327 327 329 331 331 332 333 335 337 339 339 343 347 347 348 349 346 342 341 342 341 339 341 345 349 349 348 347 346 346 345 345 345 344 344 345 345 346 346 346 345 344 343 342 342 341 340 340 340 340 340 339 339 339 340 340 339 339 339 338 337 337 337 337 338 338 337 335 336 337 337 337 335 334
315 322 324 324 323 321 321 320 317 312 312 321 323 314 312 317 321 326 328 327 328 327 326 328 326 328 330 328 330 332 333 334 336 339 343 346 346 346 346 345 344 343 342 343 343 339 340 346 349 348 347 346 346 345 345 345 345 344 344 345 346 346 346 345 344 344 342 342 341 340 341 340 339 339 339 339 339 339 339 339 339 338 338 338 338 337 338 338 337 335 335 337 337 337 337 335 334
315 321 323 323 323 321 321 320 316 315 316 320 323 318 313 313 320 327 329 326 327 327 327 328 327 330 330 328 329 330 332 333 333 338 343 347 346 345 345 344 344 343 341 342 345 343 339 342 346 348 347 346 345 345 345 345 346 344 344 345 346 346 346 345 345 344 343 342 342 341 341 340 340 340 340 339 339 339 338 339 339 338 337 338 339 338 338 338 336 335 336 337 337 336 336 336 335
319 322 322 321 323 322 323 320 317 317 317 312 317 319 315 313 320 329 329 325 326 328 329 329 330 331 331 330 330 329 331 332 333 339 343 344 345 344 343 343 343 343 342 341 343 344 341 339 341 346 348 346 345 345 345 345 345 345 345 345 345 345 346 345 345 344 344 343 343 342 341 341 341 340 340 339 339 338 338 338 339 338 336 337 339 338 338 338 336 335 337 337 336 335 335 335 335
321 322 322 322 323 323 323 322 317 316 314 311 314 316 314 314 317 323 326 324 325 327 329 331 332 332 331 330 330 330 331 331 334 338 339 340 341 341 342 344 343 343 343 342 343 345 342 337 337 343 347 347 345 345 345 344 344 345 345 345 345 345 346 345 345 345 344 344 343 342 342 342 341 340 340 340 339 339 338 338 338 339 337 338 340 338 337 337 336 335 336 337 336 336 337 336 335
322 322 322 321 322 323 323 320 317 315 314 313 314 315 315 314 314 319 325 326 326 329 330 331 333 331 331 330 329 329 330 330 332 335 335 336 338 339 340 344 344 343 343 343 344 346 345 341 339 342 345 347 346 345 345 344 344 344 345 345 345 345 345 344 344 345 344 344 344 343 342 342 341 340 340 340 339 339 339 338 338 338 339 339 339 338 337 335 335 335 337 337 336 338 338 337 337
321 322 320 317 317 318 317 316 316 315 313 313 315 316 315 312 314 322 329 332 332 334 333 334 333 330 329 329 328 328 330 330 331 334 335 336 337 336 338 341 343 344 344 344 344 345 346 345 343 341 343 346 346 344 345 345 345 344 344 344 345 345 344 344 344 345 343 344 344 343 343 343 342 341 340 340 339 340 339 339 338 339 339 339 339 338 337 335 335 335 336 336 337 338 338 338 339
320 319 316 314 313 314 315 314 314 314 313 314 316 316 314 313 316 324 332 334 334 334 333 332 330 330 329 328 327 327 328 329 330 334 335 336 336 335 336 336 338 341 343 344 344 344 345 345 344 342 341 342 342 342 343 344 345 344 343 343 344 344 344 344 344 344 343 343 343 343 344 343 342 342 341 341 340 339 340 339 338 339 339 338 338 338 337 337 336 335 336 337 337 338 339 338 338
319 316 313 313 313 314 317 316 315 315 314 314 316 315 313 313 317 325 332 333 333 332 330 330 330 330 330 327 326 326 326 326 326 329 333 334 336 336 335 335 335 337 339 342 344 344 344 344 341 337 336 336 336 337 338 339 341 343 343 343 343 344 344 344 344 343 343 342 342 343 343 343 343 342 342 341 340 339 339 340 339 339 338 338 338 338 338 338 337 337 338 338 338 338 337 336 334
318 318 316 313 312 315 317 315 314 316 314 313 315 316 313 312 318 326 331 331 331 331 329 330 329 328 328 326 325 325 324 324 324 325 328 331 334 336 336 336 336 336 337 339 341 343 343 343 339 334 333 333 334 334 335 336 337 337 339 340 341 344 344 344 343 342 343 342 342 342 343 342 342 341 342 341 340 340 339 340 340 338 338 337 337 337 337 338 338 337 339 339 338 337 336 334 333
317 319 316 313 313 315 314 314 314 314 314 314 313 314 316 318 323 328 330 329 330 330 330 330 328 327 327 326 325 325 325 324 323 324 324 326 328 331 333 335 336 336 337 338 339 340 341 342 340 336 334 333 333 332 333 334 334 335 335 335 337 340 343 344 343 342 342 342 342 342 342 342 342 342 341 340 340 340 340 339 340 339 337 337 338 338 337 337 337 337 338 338 337 337 336 335 335
316 316 313 314 318 316 313 312 313 313 315 315 314 314 316 318 324 329 330 329 329 328 328 327 326 325 324 324 324 323 323 323 322 322 321 322 324 326 327 329 332 334 335 335 336 337 338 340 340 337 335 335 334 333 333 333 334 334 334 334 334 336 339 342 343 342 342 342 342 342 342 342 342 342 341 340 340 339 339 339 339 339 338 337 337 338 337 337 337 337 338 338 337 337 337 337 338
317 314 314 318 319 317 315 313 313 314 315 315 313 313 314 313 318 326 328 327 327 326 325 323 322 321 321 320 320 320 320 320 320 319 319 321 323 324 324 325 325 328 329 330 333 335 336 339 339 338 336 336 335 334 333 334 334 334 334 334 334 334 335 338 341 342 341 341 341 341 342 342 343 342 341 341 340 339 339 339 339 338 338 337 337 337 337 337 336 336 337 337 337 337 338 338 339
319 318 318 317 314 314 314 314 314 315 316 315 312 312 313 312 315 322 325 325 326 325 322 321 320 320 319 318 318 318 318 318 317 317 318 319 320 321 322 323 323 323 324 326 329 331 333 335 337 337 335 334 334 333 333 333 334 334 333 333 333 334 334 335 337 339 340 341 341 341 342 342 342 342 341 341 340 340 339 339 339 338 338 338 337 336 337 336 335 336 336 337 337 338 338 337 337
321 319 320 317 315 313 313 313 314 315 317 316 314 314 312 313 317 322 323 324 323 322 321 320 319 318 317 316 316 315 315 316 316 315 316 317 318 319 319 320 320 320 322 323 324 326 329 332 332 333 334 334 333 332 332 333 334 333 333 333 333 334 334 335 335 335 336 339 340 340 341 342 342 342 341 341 341 340 339 339 339 338 338 338 338 337 336 335 335 336 336 337 337 338 338 337 337
318 316 315 315 315 315 316 315 312 313 315 315 317 317 314 316 320 321 321 321 320 319 319 317 317 316 316 315 315 314 314 314 315 315 315 315 317 317 316 316 317 318 319 319 320 322 324 328 329 330 331 333 333 332 331 332 333 332 332 332 333 334 334 335 335 335 335 337 337 337 339 341 342 341 341 341 341 341 340 339 339 338 338 338 337 337 336 335 336 336 336 337 337 338 338 337 337
317 315 315 315 316 316 316 317 314 313 314 314 316 317 314 317 319 319 319 319 318 317 317 316 315 315 315 314 314 314 314 313 314 314 313 314 315 315 315 314 315 315 316 317 319 319 320 322 325 327 329 331 332 332 331 331 330 330 330 331 331 332 333 334 335 335 336 336 336 336 337 339 340 340 340 341 341 341 340 339 339 339 338 338 338 337 337 336 336 336 336 337 337 337 337 337 337
Wind_Speed
13 15 16 16 15 15 11 4 1 1 2 4 6 4 6 12 7 5 9 3 1 3 1 1 1 4 2 3 9 10 5 7 3 1 1 4 7 11 10 9 12 13 13 13 12 14 15 13 13 14 14 14 14 13 12 12 12 13 14 15 14 14 12 12 12 12 12 11 10 9 9 10 10 10 11 12 12 12 11 11 11 10 10 9 9 10 10 10 10 10 11 13 16 17 16 16 15
14 16 19 18 17 11 4 2 3 2 3 4 3 6 7 9 7 9 7 2 3 3 3 2 3 5 3 5 8 8 6 8 6 4 4 9 11 11 12 13 14 14 16 14 13 15 15 14 14 15 15 15 15 14 13 13 13 13 14 15 15 15 13 13 12 12 12 11 10 9 10 11 11 11 12 13 12 12 11 11 11 10 11 11 8 9 11 10 11 11 11 14 16 15 15 15 14
14 16 18 16 14 9 2 2 5 4 5 5 3 9 9 6 1 8 4 3 3 4 2 1 5 6 9 8 7 7 5 7 9 7 5 11 10 11 15 14 16 15 17 16 15 17 15 15 15 16 16 16 16 15 14 13 13 13 14 14 15 15 14 14 13 13 12 11 10 10 11 11 11 12 13 13 12 12 11 11 11 10 12 13 9 8 11 11 11 11 11 13 14 14 13 14 14
14 16 16 14 8 6 3 2 5 4 3 6 1 5 5 3 6 9 8 5 4 4 2 6 8 10 15 9 4 8 4 8 9 7 6 9 9 15 18 15 17 15 16 17 16 17 15 16 16 16 17 17 17 16 15 14 14 13 14 14 14 15 14 14 14 13 12 11 11 11 12 12 12 12 13 13 12 12 11 11 11 11 13 14 11 9 10 10 11 10 11 12 12 13 12 12 12
17 17 18 14 7 2 1 2 5 3 3 3 3 4 5 7 8 6 7 7 6 5 5 10 6 5 11 7 3 5 2 7 6 6 8 8 12 18 18 16 17 14 14 16 16 17 16 17 18 17 18 18 18 17 16 15 14 13 13 13 14 14 13 14 13 12 12 11 11 12 12 12 12 12 12 13 13 12 11 12 12 12 12 13 12 11 10 10 11 10 10 12 12 13 12 12 11
19 18 19 15 7 6 2 4 5 5 4 1 3 7 8 7 6 4 7 9 8 5 6 7 9 2 7 3 2 2 2 4 3 5 9 12 16 20 20 19 18 14 14 15 16 16 16 18 19 19 19 19 19 18 17 16 15 14 13 12 13 12 12 12 12 11 11 11 11 12 12 12 12 11 11 13 13 12 12 12 12 11 11 12 11 11 11 10 11 11 10 11 12 11 11 11 11
18 14 12 10 5 6 5 2 2 3 4 4 6 8 8 9 6 5 8 6 5 3 3 3 12 9 3 2 3 1 2 3 1 5 12 16 20 22 21 21 20 17 15 15 15 17 17 18 20 19 20 21 20 20 18 17 15 14 13 12 12 11 11 11 11 11 12 12 12 12 12 12 12 12 11 12 13 13 12 12 12 12 11 12 12 11 12 11 10 11 11 11 11 10 11 11 10
17 9 5 5 3 4 3 2 2 0 2 3 7 6 6 9 8 7 6 3 2 1 1 3 13 11 2 2 3 2 5 3 2 9 16 20 22 23 22 20 19 17 17 14 14 17 17 17 21 20 21 22 21 21 19 18 16 15 14 13 12 12 11 11 11 13 12 12 11 12 12 13 12 12 11 12 13 13 12 11 11 11 11 11 11 11 12 12 10 11 11 10 11 12 12 11 10
15 9 5 5 4 4 3 1 2 4 4 6 9 6 6 8 4 3 5 4 3 3 4 7 8 8 5 4 6 3 5 6 8 13 17 20 23 24 21 19 19 17 17 14 13 17 18 17 21 20 20 21 22 21 20 19 17 15 14 13 13 12 11 10 11 13 12 11 11 12 12 12 12 12 12 12 13 13 12 11 11 11 11 11 10 10 12 12 11 11 11 11 13 13 12 11 9
8 7 6 4 5 5 3 2 3 3 5 8 9 8 8 7 6 7 8 7 4 6 6 6 6 4 7 6 6 4 7 10 12 14 15 20 23 22 19 19 19 18 17 15 14 15 17 19 21 21 21 20 21 21 21 19 17 16 14 13 12 11 10 10 11 11 10 11 11 12 12 12 13 13 13 13 13 13 12 11 11 10 10 11 11 11 12 13 12 12 12 13 14 12 11 10 9
6 6 6 5 7 4 3 4 4 3 4 8 10 10 7 6 5 11 12 7 3 3 4 4 4 2 9 8 3 6 12 14 14 15 16 19 20 19 18 17 18 18 17 15 14 14 16 21 23 21 20 20 20 20 20 18 16 15 14 13 11 11 10 9 10 10 10 10 11 12 12 13 14 14 14 13 13 13 12 11 10 10 10 11 12 12 13 13 13 13 14 13 12 11 11 10 9
7 6 5 4 6 4 3 3 5 4 4 6 8 8 6 8 7 9 11 8 5 3 5 6 3 1 6 7 3 9 14 15 15 17 17 18 18 18 17 16 19 17 16 15 14 16 15 19 24 22 20 19 18 18 18 16 16 16 15 14 12 11 10 9 9 9 9 9 11 12 12 14 15 15 15 14 13 12 12 12 11 10 12 12 11 12 12 13 14 14 13 12 11 11 10 9 8
6 7 5 3 6 6 5 4 4 3 4 5 7 8 7 11 10 7 9 8 9 7 6 7 5 4 6 5 5 9 11 14 17 18 18 16 16 17 16 17 19 16 16 16 15 18 15 17 22 21 19 18 17 17 16 16 17 17 15 14 12 11 10 10 11 11 11 10 12 13 13 15 16 15 15 15 13 13 13 12 11 10 13 13 11 11 12 13 14 14 13 12 11 11 10 9 8
4 6 5 4 8 6 5 4 5 5 5 6 7 10 8 8 8 5 7 6 8 9 4 2 3 4 6 6 4 7 8 15 19 18 18 15 15 16 16 17 18 16 16 16 16 17 16 17 20 19 17 16 17 19 19 19 19 18 15 13 11 11 12 12 12 13 13 12 13 14 14 15 16 15 16 16 14 13 13 13 11 10 12 12 11 12 13 13 14 14 13 12 11 10 10 8 7
5 5 5 5 8 4 4 5 7 5 4 8 8 10 9 8 9 7 7 7 7 7 5 1 2 3 4 8 4 5 11 19 20 18 17 15 16 14 15 17 16 16 15 15 16 17 18 19 19 18 17 16 19 22 22 21 19 17 15 13 11 12 13 12 12 13 14 12 13 14 14 15 15 16 16 16 16 14 13 13 12 11 10 11 11 12 13 14 14 14 12 11 10 9 9 8 7
5 5 5 5 7 4 5 7 6 5 6 10 9 9 11 9 10 8 7 4 6 9 6 2 1 2 5 11 8 12 18 21 20 19 18 16 16 14 14 15 15 16 15 15 16 18 20 20 21 20 20 20 23 25 24 22 21 18 16 15 14 14 14 13 14 14 14 12 13 15 14 14 15 15 16 16 15 14 14 13 12 11 10 10 11 11 13 14 14 13 12 10 9 9 8 7 7
5 5 6 5 7 4 6 8 7 7 8 9 10 10 11 9 10 9 8 6 6 9 8 9 7 4 6 10 14 21 24 22 21 20 19 17 16 14 14 15 15 15 16 16 16 18 20 21 21 21 23 25 26 25 25 23 21 19 18 18 17 16 15 15 16 15 15 14 13 14 12 13 16 15 16 17 16 14 14 13 12 12 11 10 11 11 12 13 14 13 12 11 9 9 8 7 6
5 5 6 5 5 6 8 9 7 6 8 10 10 11 11 10 11 8 10 10 6 8 7 11 10 3 10 15 21 26 25 22 22 20 19 17 15 14 14 15 16 16 17 17 17 18 21 22 20 20 23 25 26 26 26 23 20 20 19 19 18 17 17 16 16 14 15 15 14 14 12 13 16 15 15 17 17 15 14 13 13 12 11 11 11 11 11 12 13 13 12 11 10 9 8 7 6
5 5 6 7 6 10 8 10 8 8 10 11 11 12 11 10 10 8 10 10 8 9 5 8 9 4 12 18 22 24 24 23 22 20 18 17 15 14 14 15 17 17 18 18 19 20 20 21 21 20 21 24 25 25 25 21 19 22 19 17 18 18 18 17 17 15 16 16 14 15 13 13 14 14 16 17 16 14 14 14 13 12 11 10 10 10 11 11 11 12 12 11 10 9 8 8 7
4 4 6 7 11 12 8 9 10 11 12 12 12 11 11 11 10 8 9 10 9 11 7 5 5 11 14 16 18 19 20 21 21 20 18 17 17 15 15 16 17 18 19 18 20 22 21 21 22 22 19 21 24 25 25 20 18 21 19 17 19 19 21 20 19 18 18 18 16 15 14 13 14 14 15 16 14 14 14 13 12 11 11 10 10 10 11 11 11 11 12 11 11 11 10 9 7
2 3 7 9 12 10 9 10 10 11 12 12 13 12 13 11 8 8 9 10 9 10 9 8 7 13 16 14 15 15 15 17 18 18 16 16 16 16 16 17 18 19 19 18 19 23 22 20 22 24 22 21 24 25 24 22 18 19 19 19 21 21 22 21 20 19 18 19 18 17 14 14 14 14 15 15 15 14 13 12 12 12 12 11 11 11 11 11 13 13 12 13 13 12 12 11 10
4 6 10 11 12 12 11 11 11 12 12 13 14 12 11 10 9 9 10 9 7 9 11 11 6 7 16 15 14 14 14 15 16 16 15 15 15 16 17 17 18 19 20 19 19 23 24 21 21 24 25 23 25 26 23 23 18 18 20 20 20 21 21 21 20 20 20 19 20 19 17 15 13 13 15 16 16 15 13 13 13 13 13 13 13 13 13 13 14 14 13 14 14 13 13 13 15
6 7 10 12 13 13 10 11 13 12 13 14 12 11 10 9 10 9 10 10 7 8 7 7 8 0 14 17 13 14 16 16 15 16 16 15 16 17 18 18 19 19 20 20 19 22 25 23 21 22 25 24 25 26 25 23 17 17 20 19 20 22 21 21 21 21 21 19 20 20 19 17 13 13 14 15 16 14 15 17 16 15 15 17 16 16 16 15 16 15 14 15 14 14 15 16 19
9 9 11 13 13 12 10 12 14 14 15 15 12 10 10 10 9 8 9 10 9 6 4 5 7 5 7 15 15 13 15 15 15 17 18 17 18 19 19 18 19 19 19 19 19 22 25 25 23 23 26 26 25 25 26 24 17 16 19 19 21 21 21 21 21 21 21 19 19 21 21 18 15 15 14 15 17 16 16 16 16 18 19 20 19 18 18 17 17 16 16 16 15 15 17 19 18
10 12 12 11 12 13 12 13 15 15 14 13 11 11 11 10 10 11 11 9 8 5 3 6 7 8 6 11 17 14 12 13 13 15 16 16 18 18 18 18 18 19 19 20 19 20 25 26 24 25 27 26 26 25 26 23 18 17 18 20 21 19 19 19 19 20 21 20 19 21 22 19 15 16 17 15 17 18 15 14 15 20 21 19 19 19 18 19 18 16 18 18 17 17 18 18 14
10 14 15 14 15 16 15 15 15 15 12 10 12 13 11 10 11 11 11 8 4 4 6 10 11 10 7 7 13 12 10 10 9 11 12 13 15 17 18 18 18 18 18 19 19 19 24 27 25 26 27 26 26 25 23 22 21 18 18 21 21 19 19 19 20 21 21 19 19 21 23 23 18 16 19 17 19 19 16 16 18 19 19 18 20 20 18 19 17 17 18 18 17 17 17 16 13
12 15 15 17 18 16 16 16 16 15 10 10 12 12 10 11 11 7 6 4 1 5 10 10 10 7 6 6 7 9 7 7 7 9 10 10 11 15 17 17 17 17 17 18 19 18 22 26 27 26 26 25 26 25 23 23 22 18 18 21 21 22 23 23 23 22 20 19 21 22 23 25 21 18 20 18 20 20 18 20 21 21 21 19 20 19 17 17 14 16 17 16 16 16 16 15 13
12 15 16 18 19 17 17 17 16 11 7 9 10 9 12 12 10 9 8 2 2 9 10 8 11 9 5 6 7 9 7 8 10 9 9 8 9 12 15 17 17 17 17 18 18 18 21 26 26 27 27 25 26 26 25 24 21 18 20 22 22 24 25 25 25 21 18 18 21 21 21 23 23 19 20 19 18 19 19 21 21 22 22 20 20 18 15 15 12 15 16 16 17 17 16 15 14
13 15 16 18 19 19 19 18 13 7 3 5 6 7 13 11 10 12 9 1 4 11 9 8 10 8 7 5 3 7 9 9 8 7 9 8 8 9 13 15 15 16 16 17 18 18 21 25 25 26 26 25 25 26 26 24 20 19 21 23 24 24 25 26 24 20 16 16 18 20 19 21 21 18 19 19 16 17 19 21 20 22 23 20 19 18 15 14 12 15 17 16 18 18 16 16 15
15 15 13 13 16 14 9 10 11 5 1 2 5 6 9 10 6 5 5 5 8 9 6 9 9 8 8 4 4 2 10 9 6 8 10 10 7 8 11 14 15 15 15 17 18 18 21 24 24 25 26 26 25 24 24 23 20 20 22 23 24 25 25 25 24 21 17 16 17 18 18 19 20 18 17 17 16 17 20 22 21 21 23 20 17 17 15 13 14 16 17 17 18 17 14 14 14
12 13 11 9 10 6 7 4 11 5 2 2 4 6 7 13 9 3 8 9 8 9 6 6 8 9 8 6 6 3 11 9 9 10 8 10 8 7 10 13 15 16 14 16 18 18 20 23 24 24 26 27 25 24 24 22 21 22 24 24 23 23 23 25 26 25 21 19 18 18 17 18 19 19 19 18 18 20 22 23 22 21 22 21 18 17 14 14 16 16 16 18 16 14 12 12 12
11 10 8 7 6 4 7 2 2 2 2 0 5 7 7 11 13 9 7 5 7 13 10 6 8 9 8 7 5 8 11 9 11 11 9 10 12 11 7 12 17 18 16 15 18 18 19 21 23 23 25 26 26 25 24 23 23 24 26 25 24 23 23 25 26 26 24 20 20 19 18 18 18 19 21 20 19 20 21 23 24 22 22 21 20 17 15 15 15 16 16 15 12 11 14 15 14
7 5 7 8 8 7 7 9 8 3 4 5 7 6 8 9 12 14 13 11 8 11 11 8 7 8 7 4 5 10 10 9 9 9 11 13 14 11 9 12 17 20 18 15 17 19 18 20 21 22 24 25 25 26 26 26 26 25 25 25 25 24 24 26 25 26 25 21 20 18 18 20 19 19 21 21 21 21 21 23 24 23 21 21 21 18 16 13 12 15 15 14 13 12 16 19 16
4 6 8 10 12 11 8 11 10 1 2 10 7 4 9 11 13 13 14 14 8 9 12 7 5 7 6 3 5 10 8 7 6 6 9 14 16 12 11 13 15 19 20 17 17 18 17 19 20 19 21 24 24 25 29 31 27 24 24 24 24 23 23 24 24 24 24 22 21 19 17 19 19 19 20 21 22 23 22 22 22 22 21 21 21 19 17 15 14 14 12 14 18 15 16 19 15
9 9 9 10 11 11 10 10 10 10 12 12 8 8 10 11 14 13 13 13 10 11 11 8 8 7 4 3 5 12 8 5 4 4 6 2 6 8 9 10 13 18 19 17 16 18 17 17 18 18 20 23 23 24 27 31 28 25 24 23 22 23 23 24 23 23 24 23 22 20 18 18 19 19 20 21 22 23 23 22 22 22 22 22 21 20 19 19 18 14 9 12 16 15 13 13 8
13 12 10 11 10 10 11 11 9 11 12 11 10 10 10 12 14 14 14 13 12 12 10 7 8 6 4 3 4 10 9 7 6 9 15 15 9 4 2 2 5 12 17 16 15 17 17 17 17 18 19 22 23 23 24 28 30 28 26 24 24 25 25 25 24 24 23 23 24 22 19 18 20 20 21 22 22 23 23 23 24 23 23 23 22 21 22 22 20 16 12 11 14 14 11 9 5
13 13 11 12 11 9 11 12 10 10 9 11 11 10 11 12 13 14 14 13 13 12 11 8 7 6 3 7 10 11 9 9 10 12 13 12 11 8 4 5 4 13 16 16 15 16 17 17 17 18 20 21 22 23 23 25 27 28 28 27 27 27 26 25 24 23 21 21 23 24 22 21 21 22 23 23 23 23 23 23 24 24 23 23 23 23 23 22 19 18 15 13 14 15 13 10 9
11 11 10 10 9 9 11 12 12 11 8 11 15 15 14 13 12 13 13 13 12 12 11 9 8 5 4 13 14 11 10 9 8 8 7 8 9 8 3 6 5 10 18 17 14 15 16 16 17 17 20 22 22 23 24 24 24 24 25 26 26 25 25 26 25 24 21 19 21 24 25 24 21 22 23 24 24 23 22 21 22 23 23 23 23 22 22 20 19 19 18 16 15 16 15 12 12
11 9 9 9 7 9 11 10 10 11 8 10 16 16 14 14 13 13 12 12 10 8 9 8 6 2 8 13 11 10 10 8 5 5 5 5 5 5 3 4 6 9 18 18 15 16 16 16 16 17 19 22 22 23 23 23 23 22 22 23 24 23 23 25 23 23 22 20 22 24 24 24 22 21 22 23 23 22 20 20 20 21 21 22 22 21 21 20 19 19 19 17 14 14 15 13 14
10 8 8 8 8 10 9 8 12 12 10 13 16 14 12 12 10 9 10 10 7 5 7 5 4 2 10 13 11 11 10 8 7 7 6 8 6 5 6 2 2 7 15 15 14 17 17 16 16 17 19 21 22 23 23 23 22 21 20 21 22 21 21 22 20 20 23 22 22 24 23 23 23 23 22 22 24 23 23 23 23 22 22 23 23 22 23 22 21 21 20 18 15 13 13 15 15
10 11 8 7 11 13 12 13 14 13 13 14 16 12 7 8 8 7 8 9 8 6 6 3 1 6 14 15 11 11 11 9 10 11 10 12 11 6 8 5 4 9 15 17 17 17 17 16 17 18 19 20 21 23 24 23 22 21 19 19 20 19 19 21 19 19 22 22 23 25 25 24 24 24 23 22 23 23 24 25 24 25 25 25 25 23 24 23 23 23 20 18 18 15 14 15 16
10 12 10 10 14 16 17 17 14 10 9 10 11 9 6 8 10 8 6 7 7 6 6 4 3 7 12 13 10 10 10 8 9 11 11 11 11 10 10 6 4 10 15 16 18 18 17 17 19 19 19 20 20 22 24 23 22 22 20 19 20 18 17 19 20 20 22 23 23 25 26 26 26 24 23 24 24 23 23 23 23 24 25 25 25 24 24 23 23 23 19 17 18 18 15 13 14
7 12 15 16 17 17 18 18 13 8 8 10 11 9 7 7 9 9 6 6 6 6 7 5 3 7 8 9 9 9 9 8 8 10 11 11 10 11 9 6 5 9 13 11 13 17 19 18 19 20 20 20 20 21 24 23 23 23 22 20 20 19 17 19 21 22 22 23 22 24 26 27 28 25 24 25 24 25 24 22 22 24 24 23 23 24 24 23 24 23 20 18 19 18 16 13 13
8 14 18 18 18 17 18 16 12 9 10 12 13 10 7 6 8 9 6 4 4 2 3 3 7 11 9 8 8 7 8 7 7 9 10 10 9 10 10 11 11 11 14 12 9 13 19 20 18 20 21 21 21 21 24 24 23 23 24 22 21 22 20 20 22 22 22 23 22 24 25 26 27 26 25 26 25 26 26 23 22 24 24 22 21 23 24 23 24 23 21 20 20 18 16 16 15
11 16 17 16 16 16 17 13 10 11 10 8 9 9 6 5 6 5 4 4 3 1 4 8 11 11 9 7 8 8 7 8 9 10 10 9 9 10 11 12 14 14 14 13 11 12 17 19 19 19 21 22 22 22 24 25 25 23 23 23 22 23 23 22 22 23 23 23 23 24 24 25 26 26 25 26 27 26 26 24 22 23 25 23 21 22 22 22 23 23 21 21 21 20 19 18 16
13 16 16 15 16 16 14 11 10 10 9 7 9 9 6 5 5 3 2 3 4 4 5 9 10 9 7 6 7 8 9 10 12 11 11 11 11 13 15 16 17 17 16 14 13 11 13 17 21 22 21 23 23 23 24 25 25 24 24 24 24 23 23 23 22 23 24 24 24 24 24 24 26 26 25 25 26 25 24 25 24 23 24 23 22 21 21 21 23 23 21 21 21 20 21 20 18
14 13 12 13 13 10 9 9 8 7 7 7 9 9 7 6 3 3 4 4 5 5 5 7 8 9 9 7 8 9 9 9 9 10 11 12 14 17 19 18 19 19 19 17 16 13 10 15 20 22 22 23 23 24 25 26 26 26 25 25 25 25 24 22 22 23 24 24 23 24 25 25 25 26 26 25 25 24 24 26 27 25 23 23 22 22 22 23 25 25 22 21 22 20 19 19 18
13 9 9 9 8 7 6 6 6 5 6 7 8 10 9 5 3 5 7 10 10 9 9 10 12 12 11 10 11 10 10 9 9 9 11 11 11 15 17 17 17 18 19 19 19 17 14 13 16 21 24 25 24 24 25 25 26 26 26 25 25 25 24 23 21 21 23 24 24 24 25 24 24 25 26 26 26 25 25 26 26 26 24 24 25 23 23 24 26 27 24 22 24 22 20 20 19
10 8 8 7 5 5 5 6 5 5 6 6 11 14 10 6 6 7 9 11 12 12 12 12 13 12 11 12 12 10 11 11 10 9 10 9 9 11 13 15 17 18 19 20 21 20 19 17 17 20 23 23 22 22 21 23 25 26 25 25 25 25 24 23 22 22 22 24 24 24 24 24 24 24 25 26 27 27 25 25 26 27 26 27 26 24 24 24 25 26 25 23 25 24 22 22 22
9 8 6 6 7 5 5 6 5 6 7 9 15 16 8 5 8 8 11 13 12 12 11 11 12 11 10 11 11 11 11 12 10 9 9 8 8 9 11 14 16 18 19 20 21 21 22 22 19 18 22 26 26 23 23 22 23 25 25 24 24 24 24 24 23 22 22 23 23 23 23 24 23 23 25 26 27 28 27 25 26 27 28 27 26 25 24 23 24 25 23 23 24 24 23 22 22
9 8 7 7 5 5 5 6 6 7 9 11 13 11 6 5 8 9 9 12 11 10 10 9 9 9 8 9 10 10 11 12 12 11 11 10 9 9 10 13 15 17 19 21 21 21 24 22 16 15 19 26 29 26 25 27 25 23 23 24 25 23 22 23 22 22 21 20 22 23 23 23 22 22 23 23 24 26 27 25 23 25 29 28 25 25 25 24 25 24 22 22 23 23 22 22 21
6 7 7 6 5 5 6 7 9 10 9 9 7 4 6 6 6 10 9 9 10 9 8 7 7 9 10 10 11 11 12 13 14 14 14 15 14 15 14 13 13 16 18 20 21 23 25 21 17 17 18 21 27 24 22 26 27 27 26 25 27 24 22 21 21 21 19 18 19 20 21 22 22 21 21 22 22 24 26 25 22 23 27 28 26 26 27 27 26 24 22 22 23 22 21 21 19
6 7 7 7 10 8 7 6 8 9 7 6 5 5 7 6 4 13 13 10 9 8 10 12 14 15 15 14 14 14 14 14 15 15 15 16 18 21 22 20 18 17 17 19 21 24 26 22 20 22 19 18 22 23 24 26 26 28 26 27 30 29 25 23 21 21 20 19 19 19 20 21 21 21 21 22 23 22 24 25 24 24 26 27 27 27 28 28 28 26 22 22 23 22 20 19 18
7 7 6 8 10 8 5 5 5 6 7 5 6 8 8 7 2 9 11 8 7 10 14 16 17 17 16 14 14 15 16 16 16 17 17 16 17 20 25 27 27 26 26 25 23 24 26 22 21 22 20 19 22 24 24 24 24 26 26 24 26 29 29 27 23 22 21 20 19 18 19 20 21 21 21 22 23 23 23 24 25 25 25 26 26 26 27 28 28 26 24 23 22 20 20 19 18
7 6 7 6 7 6 4 5 5 7 8 5 7 10 7 6 4 5 8 7 10 13 15 15 16 15 14 14 15 16 16 15 16 16 15 14 16 20 24 27 29 31 32 32 29 27 27 25 21 19 18 19 22 22 21 21 23 23 23 24 23 26 30 29 24 21 20 21 21 18 18 19 20 21 21 22 23 24 24 24 24 24 24 24 25 27 27 27 27 26 25 24 21 19 20 20 18
2 5 7 6 6 7 6 5 5 7 8 7 9 9 5 5 4 8 12 13 14 14 13 12 13 14 13 12 13 14 14 13 14 14 14 14 16 21 25 26 28 29 30 32 33 32 30 28 25 22 20 19 19 19 18 18 19 21 20 20 21 22 25 27 25 23 22 20 19 18 18 19 20 20 20 22 23 24 25 25 24 24 24 23 24 27 27 26 26 25 25 25 22 20 19 19 18
6 6 7 7 6 7 7 6 6 7 7 7 7 8 5 3 7 10 14 15 13 12 12 10 11 12 12 12 12 12 12 13 12 12 13 13 15 21 25 26 27 28 30 32 33 33 31 30 28 25 24 21 18 18 17 14 13 15 17 15 16 18 20 23 25 23 22 21 17 16 17 18 20 21 20 22 24 24 24 25 24 24 25 24 24 27 28 27 26 25 25 24 22 22 21 19 19
6 6 7 7 5 6 6 6 6 6 7 7 7 10 8 3 8 10 10 13 11 12 11 9 10 11 12 11 12 11 10 11 12 12 13 12 13 19 23 24 25 26 27 29 31 31 31 32 30 27 25 23 20 19 19 17 12 11 14 15 16 19 20 22 24 23 23 23 22 20 18 18 20 21 20 21 23 25 25 25 25 25 25 24 24 26 27 26 24 24 25 23 21 22 22 21 19
Wind_Direction
287 285 285 279 272 265 257 238 195 278 229 273 267 241 251 241 175 175 239 208 177 198 26 14 323 38 97 32 94 138 108 68 60 14 88 133 151 146 149 150 148 154 152 157 174 170 164 168 165 168 173 176 178 172 163 156 153 148 148 148 150 154 152 152 149 148 148 145 140 131 128 131 132 127 122 119 119 117 116 116 115 114 114 119 120 113 111 108 103 102 107 115 115 114 115 115 114
283 283 282 263 249 256 275 203 232 302 267 265 229 234 234 231 185 165 211 142 113 122 63 356 50 50 110 83 81 123 97 63 85 92 97 131 135 146 160 160 159 160 158 166 178 168 167 174 169 171 177 178 180 176 169 164 159 155 152 149 152 155 154 153 151 151 152 151 146 138 138 140 138 132 126 123 122 121 121 122 122 126 126 123 120 111 112 112 107 107 111 117 118 116 118 117 116
279 283 286 271 244 231 261 245 264 294 283 297 163 208 216 223 0 102 95 39 61 70 68 83 61 23 48 59 27 41 80 68 89 102 114 142 142 158 165 165 163 162 163 168 170 164 170 179 174 174 177 181 183 180 175 170 164 160 156 151 152 156 155 155 156 158 160 159 153 148 148 145 139 132 129 128 128 130 130 133 133 139 140 130 123 113 113 117 114 113 115 118 120 119 119 118 117
280 279 280 282 270 224 216 230 263 265 264 312 61 184 185 118 35 54 68 39 28 36 318 67 44 359 39 48 32 43 44 68 93 118 134 159 156 162 165 167 163 161 167 168 166 164 175 182 178 178 179 184 185 182 179 174 170 164 161 156 153 155 154 157 159 162 166 164 159 156 151 143 138 134 134 135 138 141 139 139 132 131 144 140 129 120 116 119 119 118 117 120 126 125 121 122 122
273 268 265 267 283 287 174 206 263 264 210 280 348 42 44 61 61 46 66 49 22 34 5 70 75 326 52 37 36 65 18 77 93 111 129 147 143 155 158 161 161 164 170 169 168 166 180 185 180 182 182 186 186 184 182 179 175 169 165 160 157 157 157 163 165 167 170 167 162 156 150 144 141 141 143 147 148 148 143 138 131 126 137 142 133 130 127 123 122 122 121 124 130 128 125 128 128
263 257 252 246 262 302 257 209 237 252 259 264 4 21 30 35 53 23 55 45 358 36 29 90 133 111 80 56 43 80 2 85 112 109 131 139 140 148 152 160 164 170 173 172 171 168 186 190 182 183 184 187 187 184 185 183 180 176 170 166 167 166 166 172 175 174 174 169 162 154 151 151 151 152 155 158 153 148 146 141 140 135 136 142 141 142 138 131 130 128 124 125 130 131 132 133 130
264 261 251 241 237 268 263 254 226 217 318 7 31 13 12 19 20 10 65 72 333 43 49 120 120 86 80 119 67 125 80 98 121 110 133 140 144 147 156 164 165 173 174 175 173 175 192 191 184 185 186 187 187 186 187 186 183 181 176 177 177 177 177 178 179 174 170 165 159 158 159 161 163 164 163 159 153 151 149 145 146 145 144 146 145 145 143 141 143 136 130 131 133 137 138 135 132
260 266 283 283 262 245 253 348 339 47 58 85 76 34 358 26 18 1 38 79 15 65 85 79 98 96 188 132 89 202 136 144 122 117 134 140 147 151 159 162 165 175 174 177 170 178 194 192 188 187 187 187 188 187 186 186 185 184 182 186 185 185 183 178 174 165 163 160 159 166 169 173 173 168 163 157 154 154 152 151 151 148 144 140 138 144 145 147 149 142 141 144 141 140 140 137 136
255 251 262 273 291 290 283 38 4 345 38 82 74 47 355 24 1 332 18 13 32 345 26 47 56 104 173 131 120 166 126 135 127 126 138 143 151 156 160 163 169 174 174 176 165 183 197 192 192 189 188 188 188 186 184 185 184 186 187 190 191 189 184 175 168 161 160 160 167 176 178 183 179 170 164 160 159 158 157 156 152 147 145 143 142 146 147 150 153 151 153 151 145 143 141 140 140
258 251 263 274 284 292 329 22 72 356 17 58 58 46 4 355 329 344 26 19 7 347 32 63 16 100 137 103 110 146 132 136 132 136 145 149 156 159 164 167 170 173 173 171 164 184 195 192 194 191 188 188 188 184 180 183 184 187 187 189 192 189 182 174 166 162 162 166 179 186 184 188 184 174 166 165 163 162 163 159 154 151 153 154 151 150 154 160 159 157 155 150 146 146 144 143 142
269 252 249 267 286 309 17 344 47 21 358 48 39 36 3 320 1 5 6 5 4 13 1 56 52 74 104 95 103 130 140 148 146 146 151 154 159 162 166 168 168 173 173 172 169 175 188 191 192 190 187 187 186 181 179 182 184 187 187 189 191 187 180 174 171 167 166 177 194 194 191 192 187 178 169 167 167 167 166 159 159 157 154 161 159 156 162 164 159 156 153 151 148 148 147 145 142
275 285 252 259 300 327 4 335 51 26 338 58 39 25 349 317 32 26 338 335 349 45 9 20 45 313 91 103 142 137 151 161 156 150 154 159 162 164 166 166 164 169 173 177 175 171 181 185 187 189 185 184 183 177 178 183 187 190 190 191 190 184 178 174 174 174 177 191 204 200 196 194 190 183 173 170 172 172 169 164 167 161 151 160 164 160 164 160 156 157 156 155 153 153 151 146 144
260 298 305 319 307 307 341 3 64 54 350 46 51 24 356 335 22 36 320 325 347 9 35 24 340 318 88 109 135 147 166 161 157 152 157 163 161 164 163 161 162 168 175 174 174 172 175 178 184 185 180 180 177 175 181 188 192 192 191 190 188 180 177 179 178 184 189 199 209 204 201 198 192 186 177 173 176 176 173 173 176 170 159 160 165 164 165 163 161 162 161 161 158 157 154 151 149
293 314 322 314 292 300 338 350 9 35 18 359 32 16 347 340 2 4 319 335 355 350 5 32 315 342 98 130 133 149 169 156 156 154 159 162 157 162 159 159 163 169 174 172 173 174 174 176 179 177 174 173 171 180 189 194 195 193 190 184 184 183 184 185 184 190 194 200 208 205 204 203 195 189 183 178 178 181 180 180 182 178 169 165 166 168 169 169 167 167 169 167 163 160 158 158 155
303 313 305 289 293 320 356 8 5 14 20 337 15 9 329 346 342 327 350 11 349 301 266 117 47 327 115 129 135 159 164 157 156 158 159 154 153 159 156 159 165 170 176 177 175 175 178 175 174 172 163 163 177 190 195 195 195 192 186 179 183 192 193 189 189 195 196 200 206 207 208 205 199 193 189 184 180 183 186 186 186 181 176 173 170 172 174 174 174 173 175 173 169 165 164 167 165
285 297 291 288 298 332 7 10 4 339 353 334 359 358 325 345 332 323 4 10 291 279 271 312 337 258 121 124 153 164 159 156 155 159 155 149 154 156 157 163 167 172 178 184 180 176 181 176 174 170 159 171 188 194 196 195 194 190 181 181 188 194 198 194 195 199 198 202 208 211 211 206 204 200 193 189 187 187 191 191 191 187 183 184 178 178 178 179 183 182 183 182 179 173 172 176 178
291 280 277 284 296 347 11 353 4 347 333 330 350 344 326 332 322 330 336 308 287 311 322 296 262 197 144 133 144 148 150 153 155 156 153 154 159 160 165 169 172 177 181 188 189 180 179 179 178 167 165 183 192 190 195 194 191 187 182 188 191 192 200 202 201 199 199 201 208 212 213 210 207 205 195 191 195 194 195 194 194 193 189 192 188 185 185 185 190 192 193 191 189 185 183 189 194
280 266 278 281 298 14 11 336 357 344 320 335 340 322 323 325 325 332 308 311 322 314 314 286 280 178 147 136 131 139 146 153 158 159 160 164 168 170 174 176 178 181 182 189 194 185 178 182 180 166 174 192 193 189 193 193 188 183 182 189 188 191 201 207 206 201 201 200 204 210 212 216 211 205 197 193 199 198 196 195 195 197 196 198 195 194 194 193 195 198 203 201 199 196 198 206 208
255 270 283 273 320 11 355 322 342 342 332 333 322 319 328 317 312 306 293 321 332 303 285 271 296 57 115 122 127 139 148 156 162 166 169 173 177 178 176 179 183 182 183 187 191 190 179 182 181 170 182 197 194 192 193 190 189 185 179 183 186 193 201 208 208 201 203 201 201 209 210 216 214 205 198 198 201 199 198 194 193 200 203 205 204 205 205 204 205 204 209 210 209 207 215 218 217
232 260 278 294 334 348 325 323 343 336 329 322 318 319 307 293 295 297 305 317 300 283 273 284 5 83 106 120 133 145 155 162 167 174 177 182 184 182 180 179 182 184 186 186 186 189 184 182 181 176 187 199 194 192 192 187 188 186 176 179 190 198 202 207 208 203 204 202 202 209 209 215 215 207 202 202 204 202 200 196 194 198 205 214 213 213 215 216 215 215 216 215 218 219 223 224 223
284 293 295 307 317 311 311 335 338 324 322 315 310 302 294 303 315 308 301 294 284 286 300 339 39 111 131 139 145 157 164 166 173 182 184 190 188 184 186 183 184 186 185 189 185 183 185 182 177 178 192 200 192 189 190 186 185 185 177 180 194 202 203 206 209 206 206 205 205 207 208 215 215 212 205 203 206 202 197 197 198 200 204 213 217 215 222 231 225 223 225 221 221 223 226 226 229
279 286 288 296 299 299 316 328 318 315 315 305 301 303 313 324 312 296 288 286 300 310 322 339 344 129 140 149 159 166 171 174 180 188 191 195 193 186 188 185 184 185 184 190 186 179 182 180 171 176 193 199 193 190 185 182 180 177 175 179 194 206 206 205 208 209 208 208 209 207 207 211 210 214 210 204 206 202 194 193 200 209 209 211 216 214 218 231 231 226 228 231 225 222 230 228 232
278 288 291 292 291 293 307 311 307 311 306 300 304 311 315 307 297 293 290 289 293 299 313 323 315 149 148 157 167 174 178 183 185 191 195 195 194 188 188 188 185 185 186 190 185 177 177 178 172 175 195 198 192 193 189 183 176 171 175 180 195 207 207 204 209 213 213 213 214 211 209 210 209 213 212 203 202 201 198 195 199 212 213 212 214 213 214 220 227 228 226 233 230 222 229 235 237
289 287 284 283 282 286 301 303 301 305 299 293 295 299 294 289 293 290 284 286 286 291 304 294 293 281 185 159 163 182 185 188 191 195 197 197 196 191 190 190 188 187 188 189 184 175 173 176 173 178 198 198 189 191 189 184 177 174 179 179 187 202 209 209 210 213 215 218 219 216 212 211 214 215 212 203 198 198 204 199 200 214 216 215 216 215 218 218 219 226 226 226 227 223 227 239 243
284 284 292 299 298 298 301 296 296 296 289 288 292 289 285 285 286 284 283 284 283 291 298 275 256 261 252 162 164 184 189 190 193 193 196 200 196 191 193 194 191 191 191 190 185 174 171 174 173 181 199 197 189 187 182 181 174 173 180 178 182 194 207 212 212 214 217 217 216 217 214 210 213 216 213 210 205 200 202 199 201 218 221 218 221 219 223 226 214 218 229 223 221 224 228 236 239
297 302 308 307 300 298 296 291 288 284 280 291 294 284 282 283 278 277 276 265 271 294 269 255 241 230 234 176 168 176 183 191 188 183 190 203 197 190 195 198 196 196 193 189 185 175 169 173 173 181 198 196 189 183 175 177 173 171 179 180 183 189 196 205 213 218 217 214 214 216 212 209 211 216 212 210 211 205 202 201 201 215 223 221 221 219 230 239 217 212 229 225 222 225 231 233 226
306 304 303 296 292 291 288 282 275 272 279 287 281 281 287 284 284 283 263 231 169 284 269 269 274 247 205 199 186 168 171 168 149 158 175 200 205 195 197 200 201 200 197 190 185 179 169 171 174 179 195 197 191 184 175 177 174 172 178 180 187 192 195 202 209 213 213 210 212 211 206 204 208 214 213 206 204 206 208 209 208 214 222 222 219 221 240 251 224 217 230 227 227 225 231 233 215
307 305 301 291 286 282 275 272 271 265 262 282 285 290 287 277 276 270 258 254 337 284 277 279 286 286 260 230 190 155 147 138 141 158 167 188 214 208 206 206 203 201 199 194 186 181 172 171 174 178 188 195 195 190 183 178 172 171 179 188 199 202 201 204 206 204 203 206 207 204 200 201 204 211 219 215 205 207 211 214 215 218 221 219 217 220 237 251 233 223 230 226 233 231 230 234 211
301 296 292 286 282 277 266 251 255 265 257 307 319 298 285 269 246 248 256 261 276 278 286 282 269 272 280 266 188 157 144 137 146 148 144 170 222 229 221 219 212 205 201 197 189 182 175 171 174 177 182 190 196 195 188 177 168 177 191 201 209 210 208 208 208 202 195 201 203 203 202 201 201 204 216 221 217 212 215 219 220 220 220 217 218 219 226 244 238 227 229 225 234 239 233 234 218
288 282 277 282 280 284 288 223 216 259 304 335 302 286 295 293 260 229 264 250 239 259 288 299 297 301 305 314 299 163 122 117 107 102 127 162 217 251 240 231 222 215 206 198 192 185 177 173 174 177 179 183 190 196 191 177 168 182 199 208 210 210 212 211 211 207 197 198 199 200 204 205 203 201 206 215 221 219 220 223 222 222 221 217 219 220 229 250 241 229 229 225 229 239 242 241 231
278 276 265 269 264 297 0 162 177 196 159 133 280 280 291 300 301 227 231 243 259 287 301 305 308 311 309 309 310 64 102 108 111 120 143 158 188 243 262 250 232 223 216 200 194 189 179 175 174 176 178 177 182 189 189 183 177 186 200 206 207 209 211 212 214 209 201 199 198 197 201 207 207 204 204 207 214 217 219 223 223 224 222 218 219 219 236 258 242 232 230 225 223 226 243 252 243
261 261 270 285 278 317 352 327 186 162 143 279 293 294 283 287 302 298 280 297 307 301 303 300 293 291 287 300 354 74 95 101 116 136 148 151 177 198 234 256 240 227 223 208 195 190 181 178 176 175 179 176 176 180 182 184 185 193 204 204 205 209 207 210 216 211 202 198 197 198 201 205 206 205 205 205 210 216 219 222 224 225 223 219 219 219 237 253 239 236 235 226 224 215 230 247 240
262 277 305 319 325 338 345 327 327 93 132 252 245 269 297 298 309 313 307 300 282 280 287 284 284 298 301 318 54 83 93 92 103 131 145 164 186 187 198 235 237 227 225 214 196 191 182 180 179 175 177 177 175 173 171 177 183 192 205 207 205 203 200 207 216 211 205 201 195 195 200 201 201 202 203 204 210 215 217 218 220 222 223 219 219 221 229 237 233 241 238 223 230 224 223 239 235
331 336 326 329 331 327 319 316 321 18 247 276 256 257 289 292 293 288 284 286 286 283 288 296 311 321 324 320 79 93 98 99 107 131 150 180 191 188 196 215 227 226 228 219 197 191 185 180 181 177 176 175 174 172 167 168 175 187 199 205 207 204 203 210 213 211 211 209 201 197 201 202 199 198 200 202 205 210 211 211 212 215 220 219 219 222 220 223 236 247 239 216 226 231 227 238 233
348 340 328 321 318 311 304 305 313 313 301 302 311 299 286 288 292 292 296 303 302 290 293 316 315 299 292 285 107 103 100 91 96 81 45 64 181 189 199 204 218 220 226 226 201 189 187 181 181 180 177 175 173 174 169 165 166 178 190 200 208 209 212 214 213 216 215 213 209 202 201 205 202 197 199 203 202 204 204 203 206 209 214 217 217 220 216 219 233 244 240 219 222 233 242 252 236
333 323 310 302 304 301 294 287 297 322 322 311 301 298 301 303 302 301 299 293 285 281 286 292 291 289 306 324 100 107 109 97 67 40 30 27 33 34 73 98 264 238 227 223 207 195 191 184 183 179 178 178 173 172 173 168 164 169 179 191 201 203 208 212 213 215 213 212 211 204 199 201 202 199 201 204 202 204 205 204 205 206 209 214 216 217 215 219 229 236 239 233 227 234 252 269 249
318 310 300 298 298 291 293 298 315 337 325 301 302 311 304 294 294 294 292 292 288 285 280 272 278 289 349 48 73 85 91 85 58 45 37 28 26 26 72 98 319 282 256 228 209 205 199 189 186 181 178 181 178 174 176 178 175 173 175 183 192 195 199 203 205 208 208 209 209 206 204 201 198 200 203 206 206 207 208 205 204 206 209 213 215 213 214 217 225 231 234 232 228 232 243 254 244
299 296 291 285 285 295 305 308 320 337 331 312 319 323 308 294 295 295 293 292 284 280 281 275 272 271 73 72 74 76 72 67 56 53 50 39 35 36 75 148 177 265 267 243 214 212 208 197 191 184 180 182 184 180 179 185 188 185 181 182 188 191 194 196 198 201 203 202 203 205 205 202 199 202 206 209 210 210 210 208 207 208 209 211 214 214 214 217 219 225 230 226 224 229 236 244 242
279 273 276 275 287 304 300 303 329 343 342 315 310 311 301 292 287 281 281 287 281 274 284 281 273 278 82 78 72 69 65 60 54 54 48 45 67 93 115 191 189 237 259 246 219 213 212 204 197 191 185 185 189 186 183 188 194 195 191 188 187 188 193 197 197 197 198 200 205 206 202 200 200 203 207 207 208 208 205 208 214 214 212 211 214 214 214 216 218 222 226 222 218 225 235 245 240
278 279 284 293 313 314 306 334 348 332 308 292 291 286 281 286 282 275 289 309 309 280 284 289 288 32 81 79 69 66 62 48 43 49 33 22 33 98 125 170 260 284 279 264 236 217 210 209 206 198 192 191 192 191 189 190 194 198 198 194 191 192 194 196 198 197 195 198 205 206 202 200 200 201 204 204 206 204 195 197 206 212 216 215 214 214 214 216 219 221 222 218 215 219 234 245 243
303 302 289 299 322 324 319 327 328 309 289 286 290 286 288 304 297 294 312 319 314 293 285 293 12 86 87 81 70 68 64 46 39 36 27 25 18 40 95 89 349 314 288 268 251 232 211 209 212 206 198 196 197 197 195 192 194 198 199 195 192 195 193 190 195 195 194 198 202 203 204 202 201 201 201 202 205 205 197 195 197 201 209 212 211 212 213 216 219 220 221 220 219 222 231 241 245
311 307 319 335 331 322 313 310 308 299 289 299 309 307 306 306 297 298 301 289 300 321 321 323 31 88 98 93 83 74 64 56 48 37 31 32 19 25 63 66 321 285 270 250 239 241 228 213 210 209 203 200 203 202 198 194 194 197 199 195 189 192 191 186 193 194 192 198 200 202 206 204 203 203 204 204 205 206 204 201 199 200 205 208 209 209 210 216 217 217 220 220 220 224 225 233 246
308 314 334 333 319 308 303 305 304 299 300 301 298 290 293 304 302 306 302 284 302 335 326 315 47 79 86 79 75 77 74 66 54 45 40 35 23 23 28 9 317 284 288 270 231 237 244 231 213 207 206 205 207 207 203 198 196 198 201 200 194 195 195 191 195 195 194 198 200 201 205 206 206 205 206 206 205 207 206 203 205 205 206 209 210 208 208 213 215 213 215 216 219 221 219 223 236
298 313 320 311 306 305 302 304 300 288 287 284 277 277 297 309 302 308 315 306 300 313 320 351 63 67 63 45 34 49 75 80 61 54 51 39 30 27 9 349 337 320 316 308 260 236 247 251 232 210 205 206 210 210 208 204 199 200 202 204 202 201 202 198 196 198 200 201 201 201 202 204 205 204 205 205 206 209 208 205 207 208 210 213 212 211 210 211 212 211 212 215 218 218 219 224 230
299 307 303 298 298 290 284 280 271 268 267 276 289 292 296 299 307 337 356 329 324 45 75 66 59 56 58 40 18 18 44 69 66 61 56 41 29 20 4 350 341 331 326 317 289 245 238 256 259 232 211 207 210 211 212 210 207 205 204 206 208 207 207 204 197 199 203 201 199 200 199 200 202 203 205 207 209 210 209 206 206 208 211 212 213 213 213 214 212 211 213 215 216 218 222 221 222
291 291 286 286 278 272 276 274 274 283 282 291 300 291 286 298 314 355 7 319 329 6 62 74 68 65 62 41 23 17 24 49 62 64 56 39 23 11 4 359 350 342 339 330 307 268 234 244 259 250 226 213 212 211 213 214 212 210 209 210 211 210 209 207 198 195 197 197 197 197 197 200 202 202 204 208 210 208 206 207 206 206 209 210 211 212 212 215 213 212 214 214 216 218 219 215 211
300 290 287 291 286 288 296 291 293 297 292 293 290 289 296 293 299 338 5 31 6 7 58 69 57 58 58 44 36 34 32 42 55 61 54 38 23 15 11 2 351 348 345 336 321 301 265 244 251 257 246 227 219 215 215 217 217 215 215 215 215 214 212 209 203 196 192 192 195 196 197 199 201 203 203 206 208 205 205 209 208 204 206 207 208 211 213 215 214 213 214 215 217 215 212 211 208
328 317 306 306 309 312 299 299 314 298 288 300 312 333 340 315 329 21 43 54 39 32 50 53 47 45 46 47 43 42 44 40 41 51 47 36 25 19 14 2 353 351 347 339 329 316 299 273 259 261 257 243 231 224 217 217 220 221 220 220 220 220 216 211 208 202 192 190 194 196 196 198 199 200 200 201 203 204 205 209 209 205 204 206 209 211 212 212 212 212 213 214 215 213 210 211 212
336 317 317 320 308 313 313 313 316 288 285 320 336 344 347 320 331 27 62 70 62 58 53 50 52 45 41 45 39 38 44 37 34 47 44 29 20 18 11 1 355 351 346 340 331 322 311 296 279 272 273 269 260 250 238 227 223 226 227 226 225 223 222 217 214 212 203 197 197 196 195 197 197 195 197 199 201 203 203 204 204 203 204 207 209 209 207 206 208 209 211 214 214 213 213 215 218
322 305 319 317 304 321 322 303 300 289 294 327 335 333 334 313 321 6 60 76 73 72 65 56 54 47 42 43 36 32 37 34 29 36 44 34 19 14 6 357 354 349 344 337 330 326 318 309 307 309 310 310 305 298 290 271 246 236 233 233 233 228 225 223 219 218 213 204 201 199 198 199 197 196 197 200 201 202 202 202 202 204 206 208 208 208 206 204 206 208 210 214 214 214 218 222 224
300 302 307 296 318 348 316 306 315 308 305 316 323 323 321 314 326 357 74 94 78 71 69 61 59 53 44 42 37 27 25 25 19 18 28 29 18 14 6 355 352 347 340 335 331 327 323 324 332 331 321 313 306 306 312 308 291 275 262 250 243 235 230 230 226 224 219 210 204 202 202 203 201 201 199 200 202 202 201 201 205 208 208 209 209 208 206 204 207 209 211 213 214 216 220 223 225
301 329 311 297 353 353 303 301 302 299 303 304 300 293 288 295 6 40 69 88 73 65 58 43 43 39 29 25 21 16 16 18 15 14 16 14 10 8 4 357 352 344 337 335 333 330 330 335 336 324 318 311 301 296 303 307 299 292 293 287 270 252 239 234 231 230 226 218 211 206 207 207 206 205 201 200 202 202 201 200 202 207 207 207 208 209 208 205 206 210 210 210 212 214 217 220 224
314 322 300 322 347 324 295 295 294 293 289 287 289 281 284 289 46 63 57 56 56 44 36 37 32 29 28 25 18 16 18 16 13 13 11 9 8 4 359 356 351 343 339 339 338 337 337 340 340 335 334 328 312 301 298 297 286 276 281 294 293 278 259 243 234 232 230 226 221 214 212 212 212 210 202 200 201 200 202 201 200 205 205 206 209 211 211 208 206 208 209 210 212 212 213 217 221
267 286 300 337 329 295 281 286 288 291 279 280 290 288 302 308 335 72 62 56 49 30 36 44 37 32 32 26 19 17 16 12 9 9 7 6 6 4 0 356 353 353 353 350 346 344 343 345 350 352 349 336 323 316 312 307 295 279 267 275 296 296 279 262 246 234 228 228 227 220 215 215 216 213 204 201 201 200 202 202 200 203 204 206 211 212 210 209 208 208 209 209 211 212 215 217 219
230 272 307 324 301 285 290 285 289 294 287 286 282 280 290 290 287 55 51 49 52 41 41 42 35 34 29 20 16 13 12 10 6 3 1 2 0 -0 0 357 357 360 358 354 351 349 349 348 349 351 349 343 334 329 326 318 307 294 272 263 279 292 284 277 273 260 243 232 226 224 222 220 219 215 206 200 200 200 201 200 199 202 203 205 211 213 209 206 206 207 208 206 204 210 216 217 220
277 305 308 298 292 297 288 277 285 290 293 300 295 292 283 267 310 35 52 55 53 47 42 36 34 32 25 19 15 8 7 6 3 359 356 356 355 356 358 358 358 0 359 357 355 352 352 352 350 344 340 342 339 333 333 330 317 305 290 268 264 276 277 273 275 279 275 258 236 230 231 227 224 219 209 203 202 201 200 199 198 199 200 202 210 214 210 203 202 204 207 204 201 207 213 213 217
312 306 304 299 299 299 290 284 284 282 286 292 296 297 286 293 343 23 60 67 58 52 46 31 26 23 18 17 12 6 5 359 355 356 352 352 353 352 353 353 354 358 359 358 355 352 353 355 353 344 336 335 334 327 325 325 313 306 306 291 267 266 273 274 266 262 272 272 255 247 247 240 231 223 212 205 202 202 201 198 196 196 199 200 203 208 207 204 204 204 205 204 203 207 210 209 212
315 305 297 292 288 292 291 287 285 287 290 290 292 287 280 322 346 355 52 72 61 53 45 29 18 13 9 9 4 2 2 354 349 348 345 348 353 350 347 346 350 355 355 355 354 352 353 354 352 347 340 334 328 323 319 312 297 290 298 302 290 268 257 266 266 255 256 254 242 238 242 246 243 232 219 210 205 204 203 198 195 195 197 197 198 202 204 204 202 201 201 203 204 208 210 209 208